Commit Graph
100 Commits
Author SHA1 Message Date
GeorgeSG eaefcf06c8 Update logbook log messages 2020-05-16 11:25:48 +03:00
GeorgeSG 501d6d3410 Update airpurifier card 2020-05-16 11:12:32 +03:00
GeorgeSG 9c4f3c775a Don't shut tv off if source is not shield 2020-05-16 10:52:52 +03:00
GeorgeSG 6f38672d18 Use logbook 2020-05-15 22:31:54 +03:00
GeorgeSG ed978948ce Add logs to tv automations, get rid of thread-ids 2020-05-15 22:11:46 +03:00
GeorgeSG 3f3a761113 Fix purifier automations 2020-05-15 22:08:32 +03:00
GeorgeSG a587ce49d9 Add automations to system dashboard 2020-05-13 21:24:33 +03:00
GeorgeSG 351ac94c08 Add basic automation for bathroom switch 2020-05-13 21:23:51 +03:00
GeorgeSG 296f2e3169 Add basic bedroom switch automations 2020-05-13 21:02:45 +03:00
GeorgeSG aec357b9b3 Rename switches through UI 2020-05-13 20:51:38 +03:00
GeorgeSG f70371b3e5 Remove unused stuff 2020-05-13 20:48:25 +03:00
GeorgeSG f154422b4d Remove carbon notifications. Streamline telegram messages 2020-05-13 00:51:58 +03:00
GeorgeSG 8255e3c2e3 Simplify github sensors 2020-05-12 23:24:44 +03:00
GeorgeSG 00d8fef34e Add desk switch 2020-05-12 23:24:26 +03:00
GeorgeSG 218f17e5d6 Initial appdaemon config 2020-05-11 20:26:41 +03:00
GeorgeSG 3cacdb2a34 Don't turn lights on if I'm not home 2020-05-11 20:25:55 +03:00
GeorgeSG 1d7d4dd8ee Update compose 2020-05-10 23:38:25 +03:00
GeorgeSG 627659d621 Update compose 2020-05-10 23:31:05 +03:00
GeorgeSG a28d5cfed8 Update compose 2020-05-10 23:30:18 +03:00
GeorgeSG 920c81fa98 0.109.6 2020-05-10 23:23:22 +03:00
GeorgeSG 2cf08c2d99 Add appdaemon 2020-05-10 23:22:34 +03:00
GeorgeSG 05b867c8e6 Add initial homekit config 2020-05-10 23:11:07 +03:00
GeorgeSG a1fbeb187f Add pc light to github automation 2020-05-10 17:00:59 +03:00
GeorgeSG d4431c25fc Fix avatar white levels 2020-05-10 17:00:47 +03:00
GeorgeSG e051325be5 Add climate control via tasmota-irhvac 2020-05-10 13:26:26 +03:00
GeorgeSG 167f176c6a nits 2020-05-10 13:26:05 +03:00
GeorgeSG 13f2ff8912 More github changes 2020-05-10 03:16:06 +03:00
GeorgeSG fd4613d346 Fix github automation 2020-05-10 02:09:24 +03:00
GeorgeSG a781d98534 Add ambient main 2020-05-10 01:31:37 +03:00
GeorgeSG 69d53d78d8 Fix template 2020-05-10 01:31:32 +03:00
GeorgeSG 45d8f9cd5b Add github module 2020-05-10 01:28:59 +03:00
GeorgeSG 8c2215a32b Tweak kitchen light on automation 2020-05-09 17:47:52 +03:00
GeorgeSG b506225a00 Update light icons 2020-05-09 17:43:34 +03:00
GeorgeSG 25a045a0c2 Fix quarantine history stats 2020-05-09 17:39:27 +03:00
GeorgeSG 7d8a909f04 Fix wrong light ids after refactor 2020-05-09 11:41:55 +03:00
GeorgeSG 3a8e45383b Switch motion and window rows 2020-05-09 03:58:58 +03:00
GeorgeSG a29807dc93 Recorded custom include 2020-05-09 03:57:46 +03:00
GeorgeSG 2ddc89b653 Rearrange dashboard 2020-05-09 03:57:40 +03:00
GeorgeSG c6eaa6d3ec Cleanup new dashboard 2020-05-09 03:47:46 +03:00
GeorgeSG 6b5d613de6 Rename all lights with shorter names. Add Ambient light in LR 2020-05-09 03:31:56 +03:00
GeorgeSG 42d285579e Try yaml autoindent fix 2020-05-09 03:14:30 +03:00
GeorgeSG 9620fb4600 Define custom include for history 2020-05-09 03:14:18 +03:00
GeorgeSG c5ef570813 Add ios notifications 2020-05-08 02:18:07 +03:00
GeorgeSG 95acfc115e Add gui-sandbox back 2020-05-08 01:31:45 +03:00
GeorgeSG cddd5a66ad Update dev dashboard with state-switch 2020-05-07 02:17:06 +03:00
GeorgeSG 218a4e00b5 use time picker card :) 2020-05-07 02:06:15 +03:00
GeorgeSG 1c43cfce31 Add time-picker-card from hacs 2020-05-07 02:06:04 +03:00
GeorgeSG a0d6582e96 add tap_action none 2020-05-06 13:54:49 +03:00
GeorgeSG de1d084185 update resources 2020-05-06 13:46:07 +03:00
GeorgeSG 19d2993390 Fix motion definition 2020-05-06 13:44:01 +03:00
GeorgeSG 9217caba9e yamllint 2020-05-06 04:32:08 +03:00
GeorgeSG 94581b73b9 Define motion sensors. Add new sensors on living room dashboard. 2020-05-06 03:48:43 +03:00
GeorgeSG 4294bbc06f Update test dashboard 2020-05-06 03:03:21 +03:00
GeorgeSG 81b3323616 Tweak kitchen lighting automations: 2020-05-06 02:36:42 +03:00
GeorgeSG 89297d77cb Add zwave devices 2020-05-06 01:10:45 +03:00
GeorgeSG 9b6492e5d3 Update compose to pass z-wave stick 2020-05-05 21:25:15 +03:00
GeorgeSG 9e4cc97629 Fix green color 2020-05-03 20:50:57 +03:00
GeorgeSG 85ebbe30d5 Better log formatting 2020-05-03 20:47:16 +03:00
GeorgeSG d389d21343 Upload bin files 2020-05-03 20:21:48 +03:00
GeorgeSG 6a6f7ade34 Add test cards 2020-05-03 20:13:19 +03:00
GeorgeSG d6ad40a621 Refactor conditions and triggers based on sun 2020-05-03 15:52:26 +03:00
GeorgeSG c0c0beafd0 Tweak kitchen light conditions 2020-05-03 15:48:21 +03:00
GeorgeSG cf611f6cc7 Tweak kitchen light on automation 2020-05-03 15:33:17 +03:00
GeorgeSG 82eea889a0 Add tasmo admin panel 2020-05-03 15:25:45 +03:00
GeorgeSG d3b10bd4f0 Tweak purifier automations 2020-05-03 13:27:44 +03:00
GeorgeSG c20ea1fc4d Rever spotify config 2020-05-03 12:49:48 +03:00
GeorgeSG 3ce8daa9fc Leave a better trail of dependencies 2020-05-03 12:05:02 +03:00
GeorgeSG cf8b747c42 Remove configurations that are configured with config_flow. Backup 2020-05-03 11:59:26 +03:00
GeorgeSG 347cce19b2 Comment out plex config 2020-05-03 11:38:27 +03:00
GeorgeSG 8067aa0f88 0.109.3 2020-05-03 11:30:33 +03:00
GeorgeSG 8071c9f073 Remove thermal mount 2020-05-03 11:30:22 +03:00
GeorgeSG dcdb36633b Dont turn on the entrance lights in the wake up routine 2020-05-03 11:21:31 +03:00
GeorgeSG aca5ba85a5 Tweak climate cards and charts 2020-05-03 04:04:31 +03:00
GeorgeSG 1a80a6223f Extract scene button template 2020-05-03 03:16:03 +03:00
GeorgeSG 78345828ae Tweak progress buttons 2020-05-03 03:06:27 +03:00
GeorgeSG 095453b76d Update weather friendly names 2020-05-03 02:58:35 +03:00
GeorgeSG 27452cc15d Add allergen index card 2020-05-03 02:54:31 +03:00
GeorgeSG 7cea30cb61 Extract and streamline target humidity card 2020-05-03 02:53:00 +03:00
GeorgeSG 7e537db5f6 revert air quality unit of measurement - doesn't look good 2020-05-03 02:43:57 +03:00
GeorgeSG a1a6c4f7a0 Add titanium automation 2020-05-03 02:43:33 +03:00
GeorgeSG 072ff595a9 Tweak cobalt temperature card 2020-05-03 02:29:21 +03:00
GeorgeSG d6f5fa0703 Add cobalt and titanium sensors 2020-05-03 02:25:12 +03:00
GeorgeSG f0c2cac988 Add cobalt CPU sensor 2020-05-03 01:59:57 +03:00
GeorgeSG c79bf6c5e8 Mount thermal reading 2020-05-03 01:50:36 +03:00
GeorgeSG 3c02527c78 Minor tweaks 2020-05-03 01:41:17 +03:00
GeorgeSG 74395b16c8 Request updates of purifier manually 2020-05-03 00:50:59 +03:00
GeorgeSG d36accaabc Rename switch.titanium_power to just titanium 2020-05-03 00:44:15 +03:00
GeorgeSG 8001ec641d Refactor browser_mod to use lights. Plug in routines 2020-05-03 00:42:22 +03:00
GeorgeSG 5917fb5607 Improved Purifier UI and automation 2020-05-03 00:25:38 +03:00
GeorgeSG ad29d41b6e Fix border-radius in percentage card 2020-05-02 21:08:41 +03:00
GeorgeSG 78f413943b Tweak sonos cards 2020-05-02 20:36:09 +03:00
GeorgeSG bb4cc4d4ab use input_select.select_next 2020-05-02 20:19:37 +03:00
GeorgeSG 345f11c374 Always turn on the hallway light on motion 2020-05-02 20:14:29 +03:00
GeorgeSG c3acb38709 Update philips_airpurifier to be compatible with 1.0 2020-05-02 20:13:58 +03:00
GeorgeSG edc2488f23 Change air purifier popup title 2020-05-02 01:19:16 +03:00
GeorgeSG 9c0c722305 Add bedroom scenes 2020-05-02 00:11:15 +03:00
GeorgeSG 91b59ef6eb Split lighting module automations by rooms 2020-05-01 22:59:53 +03:00
GeorgeSG a23a12f41a Refactor indicator button 2020-05-01 22:45:47 +03:00
GeorgeSG d773e717b6 Minor tweaks 2020-05-01 22:36:18 +03:00
GeorgeSG 9e20ea8660 Refactor purifier card 2020-05-01 22:16:54 +03:00